[[{"header":{"parameterUnit":"m.s-1","parameterCategory":1,"la1":30.2991,"la2":30.254,"lo1":-89.0895,"lo2":-89.0444,"dy":0.0017,"dx":0.0017,"nx":28,"ny":28,"refTime":"2025-02-09T09:00:00:Z","depth":0,"parameterNumber":2,"parameterNumberName":"U-component_of_WINDS"},"data":[0,0,0,0,0,0,0,0,0,0,0,0,0,0,0,0,0,0,0,0,0,0,0,0,0,0,0,0,0,0,0,0,0,0,0,0,0,0,0,0,0,0,0,0,0,0,0,0,0,0,0,0,0,0,0,0,0,0,-0.064,-0.064,0,-0.0569,-0.0569,-0.0568,-0.0519,-0.0519,-0.0519,-0.0518,-0.0443,-0.0442,-0.044,0,0,0,0,0,0,0,0,0,0,0,0,0,-0.0732,-0.073,-0.064,-0.064,-0.0639,-0.057,-0.0569,-0.0568,-0.0519,-0.0519,-0.0519,-0.0518,-0.0444,-0.0442,-0.044,0,0,0,0,0,0,0,0,0,0,0,0,0,-0.0679,-0.073,-0.0641,-0.0606,-0.0603,-0.057,-0.0569,-0.0567,-0.0519,-0.0519,-0.0518,-0.0518,-0.0444,-0.0442,-0.0439,-0.0434,0,0,-0.0432,-0.0431,0,0,0,0,0,0,0,0,-0.0682,-0.0676,-0.0612,-0.0609,-0.0604,-0.0553,-0.0573,-0.0523,-0.052,-0.0551,-0.0518,-0.0518,-0.048,-0.0474,-0.0462,-0.0431,-0.0428,-0.0432,-0.043,-0.0429,-0.0428,0,0,0,0,0,0,0,-0.0686,-0.0679,-0.0612,-0.0611,-0.0607,-0.0594,-0.0586,-0.0563,-0.0519,-0.0548,-0.0545,-0.0537,-0.0478,-0.0465,-0.046,-0.0426,-0.0432,-0.0429,-0.0428,-0.0427,-0.0386,-0.0386,0,0,0,0,0,0,-0.0695,-0.0682,-0.0614,-0.061,-0.0643,-0.0592,-0.0583,-0.057,-0.0519,-0.0511,-0.0537,-0.0535,-0.0469,-0.0463,-0.0457,-0.0447,-0.0429,-0.0427,-0.0425,-0.0386,-0.0386,-0.0386,0,0,0,0,0,0,-0.0698,-0.069,-0.0617,-0.0645,-0.0635,-0.0591,-0.0576,-0.0569,-0.0556,-0.0511,-0.0503,-0.0533,-0.0469,-0.0461,-0.044,-0.0444,-0.0425,-0.0423,-0.0385,-0.0386,-0.0386,-0.0427,0,0,0,0,0,0,-0.07,-0.0691,-0.0689,-0.0646,-0.0634,-0.0603,-0.0577,-0.0568,-0.0552,-0.0548,-0.0504,-0.0497,-0.0468,-0.0444,-0.0438,-0.044,-0.0421,-0.0384,-0.0385,-0.0386,-0.0425,-0.0429,-0.0433,0,0,0,0,0,-0.0704,-0.0703,-0.0689,-0.0682,-0.0631,-0.0603,-0.0596,-0.0563,-0.0552,-0.055,-0.0521,-0.0498,-0.0445,-0.0443,-0.0435,-0.0436,-0.0384,-0.0385,-0.0386,-0.0424,-0.0428,-0.0432,0,0,0,0,0,0,-0.0748,-0.0697,-0.0681,-0.0667,-0.064,-0.0595,-0.0591,-0.057,-0.0544,-0.0542,-0.0502,-0.0492,-0.0475,-0.0454,-0.0452,-0.0428,-0.0411,-0.0411,-0.0443,-0.0447,-0.045,-0.0456,-0.0419,0,0,0,0,0,-0.0756,-0.0739,-0.0695,-0.0686,-0.0673,-0.0635,-0.0621,-0.0598,-0.0568,-0.0557,-0.0526,-0.0497,-0.0474,-0.0459,-0.0435,-0.0422,-0.0411,-0.0419,-0.0423,-0.0426,-0.0426,-0.0416,-0.0419,-0.039,-0.039,-0.039,0,0,-0.0773,-0.0743,-0.0734,-0.0694,-0.0671,-0.0652,-0.0625,-0.0607,-0.0593,-0.0553,-0.0532,-0.0509,-0.0474,-0.0457,-0.0448,-0.0438,-0.0431,-0.0427,-0.043,-0.0428,-0.0417,-0.042,-0.0423,-0.039,-0.039,-0.039,0,0,-0.0793,-0.0769,-0.0759,-0.0736,-0.0701,-0.0675,-0.0672,-0.0631,-0.0614,-0.0592,-0.0562,-0.0544,-0.0505,-0.0481,-0.0464,-0.0475,-0.0452,-0.0468,-0.0486,-0.0477,-0.048,-0.0481,-0.0485,-0.0486,-0.0468,-0.0468,-0.0468,0,-0.0818,-0.079,-0.0756,-0.074,-0.0723,-0.0687,-0.0676,-0.0655,-0.0613,-0.0602,-0.0592,-0.0542,-0.0515,-0.0492,-0.0495,-0.0482,-0.0477,-0.0472,-0.0482,-0.0484,-0.0485,-0.0487,-0.0489,-0.047,-0.047,-0.047,-0.0469,0,-0.0822,-0.0803,-0.0799,-0.076,-0.0743,-0.0729,-0.0692,-0.0678,-0.0657,-0.0632,-0.0609,-0.0577,-0.0545,-0.0538,-0.0517,-0.0511,-0.0506,-0.049,-0.0472,-0.049,-0.0492,-0.0493,-0.0473,-0.0472,-0.0472,-0.0471,0,0,-0.0868,-0.0811,-0.081,-0.0791,-0.075,-0.0734,-0.0718,-0.0688,-0.0677,-0.0649,-0.0634,-0.0602,-0.0586,-0.0566,-0.0542,-0.0535,-0.0544,-0.0519,-0.0517,-0.0524,-0.0535,-0.0547,-0.0549,-0.0529,-0.0529,-0.0529,-0.0538,0,-0.0882,-0.0852,-0.0821,-0.0802,-0.0784,-0.0749,-0.0735,-0.0708,-0.0684,-0.0664,-0.0637,-0.0614,-0.0596,-0.0583,-0.0574,-0.0545,-0.0546,-0.0544,-0.0514,-0.0513,-0.0523,-0.055,-0.0563,-0.0572,-0.0538,-0.0538,-0.0538,0,-0.0894,-0.0869,-0.0848,-0.0807,-0.0798,-0.0787,-0.0756,-0.0738,-0.0705,-0.0688,-0.0666,-0.0641,-0.0621,-0.0606,-0.0578,-0.0578,-0.0564,-0.0547,-0.0547,-0.0542,-0.0527,-0.0545,-0.0574,-0.0576,-0.0539,-0.0539,-0.0539,0,-0.0929,-0.089,-0.0872,-0.0858,-0.081,-0.0802,-0.0782,-0.0749,-0.0733,-0.0705,-0.0694,-0.0665,-0.0649,-0.0627,-0.0593,-0.0586,-0.0569,-0.0551,-0.0553,-0.0554,-0.055,-0.0551,-0.0577,-0.0543,-0.0543,-0.0543,-0.0543,0,-0.0947,-0.0936,-0.0887,-0.0876,-0.0862,-0.0826,-0.0813,-0.0789,-0.076,-0.0743,-0.0711,-0.0696,-0.0653,-0.0632,-0.0606,-0.0586,-0.058,-0.0564,-0.0557,-0.0567,-0.0569,-0.0557,-0.0555,-0.0543,-0.0543,-0.0543,-0.0543,0,-0.0984,-0.0951,-0.0929,-0.0886,-0.0875,-0.0866,-0.0828,-0.0816,-0.079,-0.0769,-0.0762,-0.0721,-0.0695,-0.066,-0.0623,-0.0605,-0.0588,-0.0578,-0.06,-0.0595,-0.0599,-0.0599,-0.0618,-0.0618,-0.0584,-0.0585,-0.0585,0,-0.0997,-0.0988,-0.0944,-0.093,-0.0911,-0.089,-0.0873,-0.0837,-0.0821,-0.0783,-0.0775,-0.0746,-0.0722,-0.0682,-0.0648,-0.0619,-0.0607,-0.0615,-0.0602,-0.0612,-0.0606,-0.0607,-0.0605,-0.0619,-0.0619,-0.062,-0.062,0,-0.1025,-0.1009,-0.0986,-0.0958,-0.0939,-0.0914,-0.0888,-0.0879,-0.0837,-0.082,-0.0793,-0.0774,-0.0736,-0.0708,-0.0675,-0.0653,-0.0629,-0.0624,-0.0623,-0.0633,-0.0645,-0.0638,-0.0608,-0.0624,-0.0624,-0.0623,-0.0623,-0.0623,-0.105,-0.1039,-0.1006,-0.0982,-0.0959,-0.0935,-0.0921,-0.0894,-0.0871,-0.0838,-0.0817,-0.0792,-0.0758,-0.0711,-0.069,-0.0668,-0.0659,-0.0657,-0.0657,-0.0657,-0.066,-0.0649,-0.0662,-0.0662,-0.0662,-0.0662,-0.0662,0,-0.1075,-0.1052,-0.103,-0.0995,-0.0975,-0.0956,-0.0926,-0.091,-0.0888,-0.0859,-0.0836,-0.0805,-0.0777,-0.0741,-0.0711,-0.0701,-0.0689,-0.0694,-0.0694,-0.0689,-0.067,-0.0674,-0.0704,-0.0704,-0.0704,-0.0704,-0.0704,-0.0704,-0.1086,-0.1067,-0.1047,-0.1016,-0.0993,-0.0968,-0.0952,-0.093,-0.0907,-0.0873,-0.0851,-0.0828,-0.0796,-0.0763,-0.0736,-0.0726,-0.0716,-0.0724,-0.0711,-0.0694,-0.069,-0.0687,-0.069,-0.0723,-0.0723,-0.0731,-0.0731,-0.0732]},{"header":{"parameterUnit":"m.s-1","parameterCategory":1,"la1":30.2991,"la2":30.254,"lo1":-89.0895,"lo2":-89.0444,"dy":0.0017,"dx":0.0017,"nx":28,"ny":28,"refTime":"2025-02-09T09:00:00:Z","depth":0,"parameterNumber":3,"parameterNumberName":"V-component_of_WINDS"},"data":[0,0,0,0,0,0,0,0,0,0,0,0,0,0,0,0,0,0,0,0,0,0,0,0,0,0,0,0,0,0,0,0,0,0,0,0,0,0,0,0,0,0,0,0,0,0,0,0,0,0,0,0,0,0,0,0,0,0,0.7492,0.7492,0,0.753,0.753,0.7531,0.7545,0.7545,0.7545,0.7545,0.7583,0.7584,0.7585,0,0,0,0,0,0,0,0,0,0,0,0,0,0.7431,0.7432,0.7492,0.7492,0.7493,0.753,0.753,0.7531,0.7546,0.7545,0.7545,0.7545,0.7583,0.7584,0.7585,0,0,0,0,0,0,0,0,0,0,0,0,0,0.7462,0.7432,0.7492,0.7505,0.7506,0.753,0.753,0.7531,0.7546,0.7545,0.7545,0.7545,0.7582,0.7584,0.7585,0.7599,0,0,0.7591,0.7591,0,0,0,0,0,0,0,0,0.746,0.7464,0.7502,0.7504,0.7506,0.7533,0.7523,0.7554,0.7546,0.7531,0.7545,0.7545,0.7566,0.7569,0.7577,0.7601,0.7602,0.7591,0.7592,0.7592,0.7593,0,0,0,0,0,0,0,0.7458,0.7463,0.7507,0.7503,0.7505,0.7508,0.7512,0.7529,0.7549,0.7532,0.7533,0.7537,0.7567,0.7575,0.7578,0.7603,0.7591,0.7592,0.7593,0.7594,0.7639,0.764,0,0,0,0,0,0,0.7454,0.7461,0.7506,0.7508,0.7482,0.7509,0.7514,0.7524,0.7549,0.7552,0.7537,0.7538,0.7572,0.7576,0.7579,0.7597,0.7592,0.7594,0.7595,0.7639,0.764,0.764,0,0,0,0,0,0,0.7453,0.7458,0.7504,0.7485,0.7491,0.7511,0.7522,0.7525,0.7533,0.7553,0.7557,0.7542,0.7572,0.7577,0.7594,0.7598,0.7595,0.7596,0.7639,0.7639,0.764,0.7632,0,0,0,0,0,0,0.7451,0.7457,0.7463,0.7485,0.7492,0.7519,0.7522,0.7526,0.7536,0.7537,0.7558,0.7561,0.7573,0.7591,0.7596,0.76,0.7598,0.7639,0.7639,0.764,0.7632,0.7632,0.7632,0,0,0,0,0,0.7449,0.7459,0.7463,0.7468,0.7499,0.7519,0.7523,0.7536,0.7536,0.7542,0.7555,0.7561,0.7597,0.7593,0.7598,0.7603,0.7639,0.7639,0.764,0.7632,0.7632,0.7632,0,0,0,0,0,0,0.7436,0.7462,0.7467,0.7485,0.75,0.7521,0.7529,0.7536,0.755,0.7551,0.7566,0.757,0.7586,0.7596,0.7592,0.7617,0.7618,0.762,0.761,0.7611,0.7611,0.7608,0.7599,0,0,0,0,0,0.7436,0.745,0.7471,0.7485,0.7492,0.7509,0.7518,0.7527,0.7543,0.7549,0.7563,0.7578,0.7593,0.7602,0.7617,0.7633,0.7638,0.7639,0.7639,0.7639,0.764,0.765,0.765,0.7641,0.7641,0.7641,0,0,0.7435,0.745,0.7458,0.7483,0.7495,0.7509,0.7514,0.7529,0.754,0.7551,0.7569,0.7579,0.7597,0.7613,0.7622,0.7622,0.7644,0.764,0.7639,0.7641,0.765,0.7651,0.7652,0.7642,0.7642,0.7642,0,0,0.744,0.7453,0.7466,0.7479,0.7498,0.7509,0.7512,0.7533,0.7541,0.7558,0.7567,0.758,0.7605,0.7617,0.7627,0.7636,0.7642,0.764,0.7641,0.765,0.7651,0.7651,0.7655,0.7656,0.7641,0.7641,0.7641,0,0.7437,0.7458,0.7472,0.7486,0.7497,0.7508,0.7521,0.7533,0.7555,0.7562,0.7563,0.7594,0.7607,0.7627,0.7629,0.7636,0.764,0.7638,0.7649,0.765,0.7651,0.7655,0.7656,0.7641,0.7641,0.7641,0.7641,0,0.7453,0.7468,0.7476,0.7498,0.7509,0.7523,0.7538,0.7548,0.7555,0.7566,0.7584,0.76,0.7618,0.7623,0.763,0.7644,0.7644,0.7647,0.7648,0.7651,0.7655,0.7657,0.7641,0.7641,0.7641,0.7641,0,0,0.7452,0.7482,0.7485,0.7495,0.7517,0.7528,0.7542,0.756,0.7568,0.7583,0.7595,0.7616,0.7619,0.763,0.7638,0.7646,0.7653,0.7648,0.7649,0.7649,0.7669,0.7667,0.7669,0.7657,0.7657,0.7658,0.7668,0,0.7461,0.7487,0.75,0.752,0.7534,0.7545,0.7557,0.7571,0.7582,0.7595,0.7606,0.7621,0.7623,0.763,0.7638,0.7651,0.7658,0.765,0.7668,0.7669,0.7665,0.7671,0.7669,0.7678,0.767,0.767,0.767,0,0.7475,0.7491,0.7512,0.7533,0.7539,0.755,0.7567,0.758,0.7596,0.7603,0.7615,0.7623,0.7638,0.7637,0.7658,0.7652,0.766,0.7668,0.7668,0.7671,0.767,0.7674,0.7681,0.7683,0.7672,0.7672,0.7672,0,0.7473,0.7499,0.7516,0.7524,0.7548,0.7555,0.7565,0.7582,0.7592,0.7607,0.7613,0.763,0.7639,0.7651,0.7663,0.7662,0.7683,0.7683,0.7689,0.7689,0.7693,0.7693,0.7702,0.7697,0.7697,0.7697,0.7697,0,0.7482,0.7495,0.7515,0.7526,0.754,0.7554,0.7569,0.7579,0.7594,0.7606,0.7616,0.7627,0.7643,0.7656,0.7665,0.7681,0.7684,0.7691,0.7693,0.769,0.7689,0.7696,0.7696,0.7698,0.7698,0.7698,0.7698,0,0.7483,0.7497,0.7516,0.7537,0.7542,0.7552,0.757,0.758,0.7591,0.7606,0.7611,0.7628,0.7644,0.7657,0.7678,0.7684,0.77,0.7703,0.7695,0.7697,0.7702,0.7701,0.7716,0.7719,0.7712,0.7712,0.7712,0,0.7488,0.7498,0.752,0.7529,0.754,0.7554,0.7564,0.7578,0.7589,0.7608,0.7616,0.7632,0.7647,0.7671,0.7685,0.7701,0.7704,0.7708,0.7707,0.7704,0.7705,0.7705,0.7706,0.7709,0.7709,0.7709,0.7709,0,0.7495,0.7502,0.7517,0.7534,0.7546,0.756,0.7574,0.7581,0.7598,0.7609,0.7625,0.7636,0.7658,0.7674,0.7691,0.7701,0.7708,0.7709,0.7711,0.7709,0.7704,0.7707,0.7696,0.7709,0.7709,0.7709,0.7709,0.7709,0.7499,0.7509,0.7526,0.7542,0.7554,0.7567,0.7578,0.759,0.7605,0.7623,0.763,0.7647,0.7663,0.7687,0.7697,0.771,0.7711,0.7715,0.7715,0.7716,0.7716,0.7701,0.7713,0.7714,0.7714,0.7714,0.7714,0,0.7507,0.7519,0.7534,0.7554,0.7566,0.7571,0.7588,0.7598,0.7613,0.7627,0.7641,0.766,0.7676,0.7691,0.7707,0.7715,0.7718,0.7719,0.7719,0.7721,0.7714,0.7711,0.7716,0.7716,0.7716,0.7716,0.7716,0.7716,0.7513,0.7531,0.7539,0.7562,0.7573,0.7591,0.7599,0.7612,0.7623,0.7644,0.7658,0.7667,0.7682,0.77,0.7714,0.7718,0.7724,0.7724,0.7729,0.7722,0.7722,0.7721,0.7718,0.7725,0.7725,0.7735,0.7735,0.7735]}]]